Location: Norton
(51.3000°N, 0.8167°E)
Time: 12:44:23
(UTC+00:00)

Cosmos 1980 Rocket - Pass Details

Date: 03 March 2021
Orbit: 828 x 851 km, 71.0° (Epoch: 17 April)

Event Time Altitude Azimuth Distance (km) Brightness Sun altitude
Rises 18:53:47 0° 240° (WSW) 3,395 6.3 -12.1°
Reaches altitude 10° 18:56:27 10° 249° (WSW) 2,466 5.7 -12.6°
Maximum altitude 19:01:35 35° 314° (NW) 1,355 3.8 -13.4°
Drops below altitude 10° 19:06:47 10° 20° (NNE) 2,488 4.5 -14.2°
Sets 19:09:29 0° 29° (NNE) 3,429 5.2 -14.6°
